GFSSE_850_thetae_333.txt.gz
Theta_e
341 333 329 324 321 320 319 323 321 322 323 322 322 323 322 321 320 318 316 315 313 312 313 317 321 323 324 322 324 332 330 329 328 328 327 327 328 330 329 334 338 339 339
339 333 329 323 320 319 322 321 321 322 322 323 323 323 323 321 319 316 314 313 312 312 312 315 318 323 323 324 324 329 334 330 329 330 330 329 329 328 327 331 336 337 339
336 332 327 321 319 320 321 320 322 322 323 324 323 324 323 322 320 318 315 316 325 339 326 326 321 322 323 323 324 327 329 331 337 337 334 336 332 330 329 329 333 336 338
334 328 322 320 320 323 320 321 322 322 324 324 324 325 325 323 323 321 319 321 325 328 334 333 330 323 323 324 325 328 331 334 334 335 338 335 330 332 331 332 333 334 337
328 322 320 319 322 322 319 321 322 323 324 325 325 326 326 326 326 325 322 322 323 325 328 332 330 328 328 326 326 329 334 335 335 336 334 332 332 330 332 333 332 334 336
322 321 319 319 323 321 319 321 322 325 325 325 326 326 327 327 327 326 323 322 323 328 331 332 333 333 332 333 333 334 333 335 337 333 332 333 331 331 332 331 331 332 334
320 320 319 320 323 320 320 321 323 325 326 326 326 327 328 328 329 327 324 323 324 326 328 329 329 331 332 333 334 333 329 334 336 336 333 331 330 332 331 332 332 332 333
320 320 319 322 322 320 319 322 324 325 325 326 328 330 331 332 330 329 327 323 324 325 325 325 324 324 325 325 326 325 330 335 337 335 331 329 330 331 331 331 332 332 333
320 320 319 323 321 319 319 322 324 326 326 327 331 332 332 333 333 331 331 329 321 322 325 322 323 321 321 322 329 334 335 335 334 331 331 332 333 332 331 331 332 332 333
320 319 320 322 321 319 319 322 325 326 327 328 332 333 333 334 335 334 331 330 329 320 327 328 330 332 332 327 331 331 332 332 330 329 330 332 334 334 334 333 333 332 333
323 320 319 322 321 320 319 322 325 326 328 329 331 333 333 334 335 334 334 331 331 329 329 330 328 328 330 330 331 331 330 329 328 329 328 328 327 327 331 333 334 334 334
323 321 319 322 321 320 319 321 324 326 328 330 332 333 334 335 336 336 334 333 332 331 330 328 327 327 327 330 330 331 329 327 326 324 322 327 327 325 322 321 330 332 333
335 334 332 322 322 325 320 321 323 325 327 329 331 333 335 336 336 336 335 335 334 331 331 329 324 326 326 327 330 331 329 327 325 323 321 316 320 320 315 318 322 329 330
336 338 337 326 338 335 335 334 324 329 332 333 334 337 336 336 337 336 336 336 334 333 331 329 326 326 326 328 330 328 326 325 324 323 321 320 308 308 308 307 318 328 325
336 337 338 336 337 338 337 335 334 334 336 336 338 339 336 336 336 336 338 335 334 333 330 330 327 327 326 326 326 325 324 324 323 321 319 314 308 307 307 306 306 318 324
336 336 338 337 337 337 337 336 335 335 336 336 338 338 337 338 338 338 338 336 334 333 330 330 328 326 329 326 325 324 324 323 323 319 318 316 310 308 307 307 308 307 308
335 336 337 337 337 337 338 337 337 336 336 336 338 338 338 338 339 339 337 336 335 333 331 331 330 328 327 328 326 325 325 323 323 322 318 318 313 309 308 307 307 307 310
335 335 335 335 336 336 337 338 337 337 336 337 338 339 338 339 341 340 337 335 332 331 332 331 331 329 327 328 326 326 326 325 324 323 322 321 321 313 309 308 307 307 306
333 334 334 334 335 336 337 339 338 338 338 338 339 340 340 340 341 339 337 334 332 333 334 334 332 329 328 327 327 327 326 326 326 325 324 323 323 320 317 312 309 308 307
333 333 334 336 336 336 338 340 340 339 339 338 341 341 341 340 337 336 334 334 334 332 332 334 331 329 328 328 327 327 327 328 327 326 325 324 324 323 322 321 317 311 309
334 335 335 336 337 337 337 336 335 339 336 340 339 338 337 337 336 335 335 335 336 334 335 331 331 329 328 328 328 327 327 327 327 326 326 324 324 324 324 323 322 319 318
336 335 335 338 339 339 339 340 333 330 335 340 340 340 336 337 336 336 338 336 333 334 334 330 329 330 329 329 329 327 327 326 327 327 326 325 325 324 324 324 323 322 321
337 336 338 342 342 343 343 343 341 338 340 341 341 339 336 335 334 335 334 333 331 330 332 333 331 331 332 331 330 329 327 326 326 326 326 326 326 325 325 325 325 324 323
342 340 340 342 344 344 345 345 344 344 344 342 340 340 339 336 336 337 333 333 330 326 326 329 331 332 332 331 331 330 330 328 328 328 327 327 327 327 326 326 325 325 324
343 343 342 343 346 345 346 346 343 344 345 344 341 339 340 338 338 338 335 336 335 334 331 328 327 328 329 330 331 330 330 330 328 328 328 327 327 327 326 325 326 326 325
345 344 345 346 345 346 344 337 342 342 343 342 341 340 338 339 340 338 335 335 334 335 334 333 331 331 331 330 330 330 330 331 331 328 327 327 327 327 327 327 326 325 326

GFSSE_850_thetae_336.txt.gz
Theta_e
335 331 326 323 322 320 322 321 322 322 322 322 322 322 321 319 317 315 314 313 312 312 314 318 322 323 322 322 325 325 328 328 326 326 326 326 327 327 333 336 337 339 339
333 331 327 321 320 319 322 321 322 322 323 323 323 322 321 319 318 315 314 316 320 313 314 316 320 322 324 323 326 331 329 327 327 329 330 331 330 328 327 334 337 338 339
334 331 326 320 319 322 320 322 322 323 323 324 323 323 321 321 319 319 326 340 340 339 335 327 331 325 323 323 324 328 329 333 334 335 334 334 331 330 328 333 335 337 338
333 330 322 319 320 321 320 322 322 324 324 324 325 324 324 323 322 322 328 326 328 332 331 329 324 323 323 323 325 328 331 334 334 336 337 333 330 331 332 332 333 336 337
332 325 320 319 322 320 321 322 323 324 324 324 325 325 325 325 324 322 324 325 326 327 328 326 325 325 325 324 326 329 333 334 335 335 334 331 331 330 331 332 332 333 336
327 321 319 320 322 320 321 322 324 325 325 325 326 326 327 328 326 323 324 324 326 327 331 331 330 330 329 327 331 333 334 335 336 332 332 331 331 333 332 331 331 333 334
321 320 319 322 321 319 321 322 324 325 325 326 328 328 329 329 328 324 324 326 326 327 327 328 330 329 330 332 333 331 331 335 336 334 332 329 329 331 332 332 332 333 333
320 319 319 322 320 319 321 323 325 325 326 328 330 330 331 331 330 329 325 324 324 323 323 322 322 324 325 327 328 329 334 337 336 333 331 329 330 329 330 330 331 332 333
320 319 319 322 320 319 321 323 325 326 326 330 330 331 333 333 332 330 329 323 322 325 323 326 327 327 323 328 333 334 334 334 332 330 328 330 331 331 330 330 331 333 334
322 320 320 322 320 319 321 323 325 327 327 331 332 332 333 334 334 332 330 329 323 328 327 328 329 330 328 327 329 329 332 330 328 329 329 331 332 333 332 332 332 332 333
322 320 321 322 320 319 320 323 325 327 328 330 331 332 333 335 334 333 333 331 329 329 329 328 328 328 329 330 329 329 329 327 327 326 328 329 328 328 330 333 334 333 334
322 320 321 322 320 319 320 322 324 326 327 329 331 332 334 335 335 334 334 333 331 331 330 329 328 327 326 328 329 329 328 327 324 322 321 325 326 324 323 330 331 333 334
323 319 319 322 321 320 319 322 324 325 327 330 331 332 335 336 336 335 335 335 333 331 331 329 327 325 326 327 329 328 326 326 324 323 321 320 315 322 320 322 328 330 331
330 332 328 322 325 321 323 325 323 326 329 332 333 337 335 335 336 336 336 336 334 332 330 330 328 325 326 327 327 325 324 324 323 321 317 318 310 308 308 309 316 326 328
335 336 334 324 336 332 336 333 331 331 334 335 337 338 335 337 336 336 336 336 333 333 330 329 329 325 326 325 325 325 324 323 323 320 318 314 309 308 307 307 310 321 326
336 336 337 333 336 337 336 335 335 334 335 335 336 338 337 337 338 338 338 336 334 333 331 330 329 326 327 327 325 325 325 323 323 321 318 315 310 308 308 307 308 317 322
335 335 336 336 337 337 336 336 335 335 335 335 337 337 338 338 337 337 338 335 332 329 331 330 329 329 328 327 327 325 325 325 324 323 321 319 319 309 309 309 309 308 312
335 335 335 336 337 337 337 337 336 336 335 336 336 338 339 337 337 341 339 334 331 330 330 329 330 331 328 327 327 325 326 326 325 325 324 322 322 316 311 309 309 313 311
335 335 335 336 335 336 337 337 337 337 337 337 337 338 340 340 338 336 335 334 331 332 331 331 333 332 330 327 327 326 326 326 326 325 325 324 324 323 320 316 310 308 308
335 334 334 334 335 335 336 336 338 337 338 338 338 340 340 340 339 335 335 334 334 334 335 333 334 332 329 329 328 327 327 326 327 327 326 325 324 324 323 322 320 312 309
335 334 334 334 335 336 336 337 338 337 338 339 338 338 338 337 338 335 335 336 337 337 336 334 333 331 330 329 328 328 328 327 326 326 326 326 325 325 324 324 323 321 316
335 334 333 335 337 336 338 337 338 337 336 339 339 339 338 337 337 337 338 338 337 336 333 334 333 329 329 329 329 329 329 327 327 326 325 325 326 326 325 325 324 323 322
334 334 335 336 336 340 339 338 339 339 337 334 338 339 338 337 335 333 335 335 334 332 330 332 333 332 331 331 331 330 329 327 326 326 325 326 326 326 325 325 324 324 323
334 334 335 335 336 340 340 339 340 342 340 341 342 340 340 340 339 336 337 335 334 334 332 328 330 332 332 331 331 332 331 330 329 329 328 327 326 326 326 326 326 325 324
334 334 337 336 335 338 342 341 341 344 342 343 343 341 339 336 337 338 338 337 334 334 332 332 330 330 330 330 330 330 329 330 331 330 330 329 327 327 327 327 326 326 325
338 336 339 338 337 338 342 343 344 343 343 343 343 343 340 337 331 334 335 337 334 333 332 330 331 331 332 331 331 331 330 329 329 329 329 329 329 328 328 327 326 326 326

GFSSE_850_thetae_339.txt.gz
Theta_e
340 334 324 325 322 321 322 321 322 321 322 321 320 319 317 316 315 314 314 314 312 313 316 320 323 322 322 323 324 326 327 327 326 326 327 328 328 328 333 336 337 341 340
332 328 322 321 320 322 320 322 321 322 322 322 321 320 320 317 317 325 339 338 331 318 316 318 322 324 323 324 328 326 327 326 327 329 330 332 329 328 333 335 336 338 339
331 327 321 320 320 321 321 322 322 322 323 323 323 322 322 321 325 337 333 335 336 336 337 337 331 323 324 324 328 329 327 331 334 334 335 332 337 330 334 334 335 337 338
331 327 320 319 322 320 322 322 324 324 324 325 324 325 325 324 324 324 324 324 324 325 326 324 322 323 323 324 327 328 330 333 334 336 337 333 337 329 331 331 334 337 338
331 324 319 320 321 321 322 322 324 324 325 325 326 326 326 325 325 324 324 324 325 327 327 327 325 324 324 325 328 331 333 334 334 336 333 334 336 330 331 330 332 335 337
329 321 319 322 320 321 321 323 324 324 326 327 327 328 327 326 325 325 325 325 325 326 330 331 330 329 327 330 333 332 334 335 332 333 333 331 336 333 332 331 330 332 335
324 319 320 322 319 321 321 323 325 325 327 328 329 330 329 328 327 326 325 324 324 324 324 324 327 329 331 332 332 330 332 336 337 334 331 328 330 329 332 332 332 332 333
320 319 322 321 319 321 322 324 325 326 328 329 330 331 330 330 329 327 324 322 322 323 321 320 322 323 326 330 330 331 334 336 335 332 330 333 331 329 331 331 331 332 332
320 319 322 321 319 321 322 324 326 326 329 330 330 331 332 331 330 329 326 323 324 325 327 329 328 325 324 326 331 332 333 332 333 329 329 335 332 330 330 330 331 333 334
320 319 322 321 319 320 322 324 326 327 330 331 331 332 333 333 333 331 330 329 328 329 329 329 329 329 326 326 327 329 329 327 333 333 332 330 331 332 332 332 331 332 335
320 319 322 321 319 319 322 324 326 327 330 330 331 332 334 333 333 333 332 330 330 330 329 329 328 327 329 329 329 329 327 327 327 328 332 328 328 330 331 332 333 333 333
320 319 322 321 319 319 321 324 325 326 328 330 331 332 334 334 334 335 334 333 331 331 330 329 327 326 326 328 329 327 326 325 324 324 329 320 325 324 328 330 331 333 333
319 319 321 321 320 319 321 323 324 326 327 329 330 332 335 335 335 335 335 335 332 331 330 330 328 325 326 329 328 325 325 324 324 324 321 318 315 318 322 327 329 331 332
319 319 321 321 320 319 320 322 324 325 327 329 333 335 334 336 336 336 335 336 334 332 330 329 328 325 327 326 325 323 322 322 322 319 320 314 310 308 308 314 325 327 328
326 325 320 322 321 320 321 324 323 326 332 334 335 336 336 337 337 336 337 336 333 334 330 328 328 326 326 325 325 324 325 323 323 321 321 315 310 309 308 308 310 316 325
334 334 324 324 331 325 333 331 330 331 334 335 336 337 336 337 337 338 337 336 331 330 330 329 328 328 327 327 327 325 325 325 325 323 319 319 314 309 308 308 312 320 323
335 336 333 327 336 335 335 335 334 334 334 335 336 337 337 337 336 335 338 336 333 329 328 330 328 330 330 328 327 327 324 325 325 325 324 322 322 314 309 308 309 316 321
335 335 336 334 334 336 335 336 335 335 335 335 336 337 338 338 336 337 335 334 331 329 330 330 329 330 332 328 327 327 325 325 326 326 325 324 323 322 318 313 309 307 309
336 335 336 336 336 336 336 337 335 336 336 335 336 337 339 340 336 337 334 334 333 332 333 332 332 333 332 330 327 327 326 326 326 326 326 325 325 324 324 322 317 310 307
340 336 335 335 336 336 337 338 337 336 336 336 337 338 340 340 339 335 335 334 335 336 336 335 334 334 332 330 328 328 328 327 327 326 326 326 325 325 324 323 323 320 311
341 338 336 335 335 336 336 337 338 337 337 336 338 338 339 335 336 336 336 337 337 338 337 334 334 333 331 331 330 330 329 328 328 327 326 326 325 326 326 324 324 323 322
338 337 336 335 335 335 336 336 337 337 337 337 340 340 339 338 336 337 338 337 337 333 333 331 332 333 331 330 331 330 331 330 329 327 327 326 325 325 326 325 324 324 324
337 336 336 334 334 335 336 336 337 338 339 339 340 339 340 338 336 334 334 334 330 333 333 330 327 329 333 332 332 332 331 331 330 330 328 328 327 326 325 326 326 325 324
337 336 336 334 334 334 338 337 338 339 340 340 339 337 341 339 339 337 336 335 333 333 333 332 332 328 327 329 329 329 330 331 331 331 331 330 329 329 327 326 326 326 326
338 338 337 335 334 334 335 339 341 339 339 341 339 340 340 341 340 338 338 338 333 332 334 332 331 331 332 331 331 331 331 331 330 331 331 330 329 328 328 328 327 327 327
339 338 338 335 334 334 335 336 341 341 341 342 342 342 342 340 338 338 337 338 335 333 334 332 331 329 330 330 331 330 330 330 331 330 330 330 329 329 328 328 327 327 327

GFSSE_850_thetae_342.txt.gz
Theta_e
340 342 332 329 321 322 321 322 321 321 322 321 321 319 319 318 318 323 324 316 313 314 317 321 323 322 324 325 326 326 327 326 325 326 327 327 326 328 335 337 344 345 341
340 339 324 322 322 321 321 321 321 321 321 321 321 322 321 324 331 337 338 337 336 327 319 319 322 323 323 332 328 328 327 327 329 330 335 339 330 327 330 335 342 339 340
340 338 322 320 322 320 321 321 321 322 322 322 323 324 324 329 328 332 334 333 333 333 335 333 323 323 324 326 330 329 330 333 335 335 339 342 341 333 331 333 336 338 339
341 339 331 320 321 321 321 322 322 323 324 325 326 326 326 326 325 325 325 326 326 325 323 322 323 323 324 327 328 329 332 333 334 337 341 341 340 331 331 331 334 337 338
342 339 324 321 320 321 321 322 323 324 325 326 327 328 327 326 326 325 325 326 328 329 329 326 324 323 324 326 329 331 334 334 335 340 340 341 342 331 331 332 334 336 337
340 338 320 321 320 321 321 323 324 325 326 328 328 328 328 327 326 325 325 325 325 325 328 329 329 326 327 330 332 333 334 334 341 340 341 337 341 332 332 332 333 334 336
336 338 322 320 321 321 322 324 325 326 328 329 329 329 329 328 327 325 323 322 322 321 322 323 328 330 331 332 331 330 334 337 340 339 340 340 337 328 331 332 332 333 334
336 336 326 320 321 321 323 324 325 327 329 330 330 330 330 328 328 326 325 323 325 327 326 324 322 325 329 331 331 333 336 337 338 334 338 340 331 329 330 331 332 333 333
335 336 336 324 320 321 323 325 326 328 330 330 331 331 331 331 330 329 328 328 328 328 329 329 328 324 325 329 331 331 331 332 336 335 337 337 331 331 329 329 330 332 333
334 335 335 334 331 323 323 325 326 329 330 330 331 332 332 333 332 331 331 330 330 329 329 328 328 329 328 326 328 328 328 330 332 334 335 334 331 331 331 332 330 332 334
334 334 335 333 333 332 331 325 326 329 331 331 331 332 334 337 336 337 331 330 331 330 329 328 327 327 330 329 328 325 331 329 329 331 335 327 328 329 330 332 333 333 334
333 334 335 334 331 332 332 328 331 331 334 336 336 333 337 337 336 337 335 332 331 329 331 329 327 327 335 335 333 331 329 328 328 328 332 320 324 325 327 330 331 333 333
331 334 335 334 332 331 331 332 333 334 336 336 332 335 337 338 338 338 338 338 337 331 335 332 332 332 333 333 330 329 327 327 326 326 326 318 316 318 323 326 328 331 333
332 333 336 334 329 330 331 331 332 333 334 335 337 334 338 340 340 340 338 338 338 336 335 332 332 332 333 333 330 328 328 327 327 326 329 315 310 310 311 322 327 328 329
332 333 335 336 324 320 328 332 332 332 330 335 337 336 340 341 342 337 340 338 335 336 335 332 332 332 333 333 331 329 330 329 328 325 326 317 311 309 308 309 319 323 324
334 334 333 333 322 320 320 330 330 330 334 336 338 339 336 341 342 341 342 339 333 334 333 332 331 332 333 333 333 331 330 331 330 329 327 327 319 310 308 308 307 308 317
337 338 331 331 325 321 322 327 331 334 335 337 338 337 337 337 337 335 342 339 337 336 332 332 332 332 333 333 333 332 331 331 331 330 329 328 328 324 313 309 307 308 309
338 340 334 333 335 330 331 333 333 335 336 337 339 341 338 338 335 335 340 338 336 337 336 336 334 333 333 333 332 333 331 331 331 331 329 329 329 328 326 320 312 308 310
341 341 340 334 337 336 335 335 334 335 334 338 339 340 341 340 342 335 340 338 335 338 338 337 335 335 335 334 332 332 332 331 331 330 330 327 329 327 328 327 323 318 310
343 342 343 338 336 334 337 336 337 336 336 336 338 340 341 342 341 336 339 340 338 339 338 337 336 335 334 334 331 331 331 332 332 332 331 330 329 329 328 328 328 327 321
345 345 338 337 336 336 336 339 341 341 339 338 339 338 339 340 343 339 340 340 339 339 339 337 337 337 335 334 333 333 333 333 333 332 332 331 330 329 329 328 328 328 329
345 342 341 338 336 335 337 339 342 343 342 342 342 342 339 339 339 341 341 342 339 338 330 332 333 336 335 335 334 333 334 333 333 332 332 331 330 329 329 328 328 328 328
344 342 340 339 337 335 336 339 338 341 343 345 344 344 341 340 342 341 341 340 340 336 340 335 331 332 334 335 333 334 333 332 332 332 333 332 331 331 330 329 329 328 328
343 338 337 337 337 336 335 340 339 343 345 345 345 345 345 341 340 343 336 339 337 339 340 338 337 336 334 335 336 334 332 333 333 333 333 334 333 332 332 331 330 329 329
342 341 337 337 336 336 335 335 338 340 345 348 348 347 340 342 339 339 343 337 336 337 338 335 333 332 334 336 336 332 335 335 335 335 333 332 333 333 333 331 331 331 330
342 342 339 337 337 336 334 334 336 345 346 347 348 346 345 342 341 339 341 339 337 338 335 332 331 332 331 332 334 335 334 334 332 333 334 331 331 330 331 331 331 330 330

GFSSE_850_thetae_345.txt.gz
Theta_e
343 340 335 330 321 321 322 322 321 321 322 321 319 319 319 324 333 335 330 320 314 315 318 322 322 324 326 326 326 326 326 325 325 327 329 330 325 330 337 343 346 345 341
343 342 332 324 321 321 322 321 322 322 322 321 321 322 327 331 335 334 333 333 335 334 322 321 323 324 333 328 326 327 326 328 332 337 341 342 330 327 335 342 345 339 340
340 335 325 320 321 321 321 321 322 322 323 324 325 326 329 327 327 326 325 324 324 329 333 330 323 324 326 329 329 327 329 334 335 341 341 342 341 328 332 335 337 338 339
340 339 324 321 321 322 321 322 323 324 324 325 326 327 327 326 326 325 326 327 326 323 322 322 324 325 326 329 328 329 331 331 338 342 341 342 341 328 330 332 336 337 339
339 339 323 321 321 321 321 322 324 325 326 327 327 327 327 326 326 326 325 326 328 328 326 324 324 324 326 327 329 331 333 335 339 342 340 342 343 330 329 332 335 337 341
338 339 320 321 321 321 322 323 324 326 327 328 328 328 327 327 326 325 323 323 323 325 329 329 326 326 327 330 331 333 335 341 340 341 339 342 340 327 330 331 332 334 336
336 340 321 321 321 321 323 324 325 327 328 328 329 329 328 327 325 324 323 323 322 320 322 327 330 330 331 332 330 332 337 339 340 339 339 339 332 328 328 331 331 332 333
337 335 324 320 321 322 324 325 326 328 329 329 330 330 329 329 327 326 327 327 328 329 327 322 324 328 331 331 331 333 335 337 339 337 339 339 328 329 329 329 331 331 331
336 337 334 324 321 322 324 325 327 329 330 330 330 331 331 331 330 329 329 329 329 329 329 329 324 324 327 330 330 331 331 336 337 336 337 338 330 331 329 329 330 332 331
335 335 334 334 325 323 324 326 327 330 330 331 331 332 332 332 332 333 332 330 330 329 328 328 329 328 325 327 326 324 332 332 333 336 337 329 331 331 332 331 331 333 333
334 335 333 333 333 332 332 326 327 330 330 331 332 333 339 339 339 337 332 331 330 330 329 327 327 330 328 327 324 328 331 331 330 334 336 328 328 330 330 332 333 333 335
333 334 334 333 332 333 332 328 332 333 334 335 337 334 341 340 340 339 335 333 331 332 332 332 328 334 335 336 333 331 331 328 328 332 332 322 325 328 330 330 331 333 334
333 334 334 334 333 333 332 333 335 336 338 340 340 341 341 340 339 339 339 338 335 336 336 335 333 336 337 335 330 329 328 327 327 331 330 315 318 319 328 328 330 332 334
332 334 335 335 334 334 332 333 334 335 338 338 340 341 342 341 340 340 340 339 335 336 335 334 334 334 334 333 330 329 328 328 327 328 329 312 310 309 311 323 327 329 331
332 333 335 336 335 335 334 333 334 334 335 337 339 341 341 341 341 340 340 338 335 334 335 333 335 335 334 332 331 330 330 330 329 327 330 323 313 309 308 307 311 322 327
332 333 334 336 337 336 336 335 335 335 335 338 340 342 342 342 342 340 341 339 336 334 333 333 333 335 334 334 333 332 331 331 331 330 330 330 324 312 308 308 308 309 312
332 333 335 337 339 336 332 335 337 336 337 339 341 343 343 343 343 337 340 337 339 337 334 335 334 334 335 334 334 334 332 332 332 332 331 331 330 329 321 312 308 307 308
336 337 337 335 338 333 331 335 338 337 337 339 341 342 343 344 343 338 339 340 338 336 337 336 336 335 334 335 334 334 334 332 332 332 332 331 331 331 329 327 320 313 308
339 340 342 336 337 341 332 337 337 338 339 340 341 343 345 345 341 341 340 338 339 338 337 336 336 335 336 335 334 334 333 333 332 331 332 332 331 330 331 329 327 325 317
341 341 344 343 339 343 343 335 340 339 340 340 341 342 344 344 343 342 340 339 340 339 338 338 337 337 336 336 334 333 333 333 334 334 333 332 331 331 331 331 330 327 326
342 344 345 347 344 342 345 345 343 342 341 341 340 341 343 344 343 342 339 343 340 338 340 341 339 339 337 336 335 335 335 336 335 335 332 333 333 332 331 331 331 331 331
343 345 347 347 347 341 345 344 344 344 344 344 343 342 343 344 345 342 341 341 342 339 341 339 339 338 337 337 336 334 334 335 335 335 334 334 333 332 332 331 330 330 330
343 346 348 345 344 340 343 346 344 345 346 346 346 346 346 346 345 345 343 341 340 341 340 339 338 339 338 337 336 336 334 333 334 333 334 335 334 333 332 332 332 331 330
343 346 348 344 343 342 340 347 346 347 347 347 346 345 345 347 346 346 343 341 337 342 339 340 338 335 338 338 337 338 336 336 334 335 334 335 334 335 335 333 332 332 331
344 345 346 341 340 344 344 343 348 347 347 347 347 347 347 347 346 344 340 340 340 338 336 337 334 336 335 337 337 338 336 336 337 335 335 334 334 334 334 334 333 331 332
343 344 347 347 339 340 346 339 346 347 346 347 347 347 347 348 346 342 344 339 340 340 338 337 333 332 332 336 337 336 335 336 333 334 333 332 331 329 328 332 332 330 331